Location: Cieszkowy
(50.3290°N, 20.5336°E)
Time: 23:47:33
(UTC+00:00)

Cosmos 372 Rocket - Pass Details

Date: 15 June 2024
Orbit: 736 x 764 km, 74.1° (Epoch: 18 July)

Event Time Altitude Azimuth Distance (km) Brightness Sun altitude
Exits shadow 00:42:22 15° 216° (SW) 1,949 5.4 -11.4°
Maximum altitude 00:46:38 66° 297° (WNW) 835 4.2 -11.1°
Drops below altitude 10° 00:51:50 10° 20° (NNE) 2,303 8.0 -10.7°
Sets 00:54:14 0° 23° (NNE) 3,229 9.3 -10.5°
